Location: Unspecified
(64.9000°N, 0.0000°E)
Time: 14:45:01
(UTC+00:00)

Transit 2A Rocket - Pass Details

Date: 20 June 2019
Orbit: 588 x 915 km, 66.7° (Epoch: 20 July)

Event Time Altitude Azimuth Distance (km) Brightness Sun altitude
Rises 11:56:59 0° 217° (SW) 3,540 8.9 48.5°
Reaches altitude 10° 11:59:35 10° 213° (SSW) 2,585 8.5 48.5°
Maximum altitude 12:05:26 54° 138° (SE) 1,053 7.1 48.5°
Drops below altitude 10° 12:10:58 10° 63° (ENE) 2,445 7.5 48.5°
Sets 12:13:23 0° 59° (ENE) 3,333 8.1 48.5°
